GFSFLT1_prec_radar_096.txt.gz
Reflectivity
-20 -20 -20 -20 -20 -20 -20 -20 -20 -17 -11 -7 0 4 -3 9 6 -1 7 13 5 8 29 31 25 29 25 22 26 23 9 -20
-20 -20 -20 -20 -20 -20 -20 -20 -20 -20 -20 -20 -20 -20 -4 -5 14 -2 21 1 12 33 32 28 28 23 28 29 22 20 23 -7
-20 -20 -20 -20 -20 -20 -20 -20 -12 -20 -20 -20 -20 -20 2 8 13 -7 25 -11 3 30 26 28 25 19 26 31 17 16 -10 5
-20 -20 -20 -20 -20 -20 -20 -20 -20 -20 -20 -20 -20 -20 -9 9 12 -4 -16 -13 22 27 29 23 22 28 29 20 13 -1 -20 -20
-20 -20 -20 -20 -20 -20 -20 -20 -20 -20 -20 -20 -20 -20 -6 1 -20 -4 0 2 12 18 13 26 24 31 27 2 -8 -20 -20 -7
-20 -20 -20 -20 -20 -20 -20 -20 11 -20 -20 -20 -20 -20 -20 -0 -13 12 13 0 -10 19 28 29 27 19 28 10 -9 15 -20 -16
-20 -20 -20 -20 -20 -20 -20 -20 1 -6 -20 -20 -20 -20 -20 3 -5 12 -11 -20 -1 -20 21 28 24 26 17 7 -3 -2 19 3
-20 -20 -20 -20 -20 -20 -20 -15 -6 -20 -20 -20 -20 -20 -20 3 -1 9 7 -15 -10 14 15 18 30 28 24 21 22 21 23 27
-20 -20 -20 -20 -20 -20 -20 13 -11 -20 -20 -20 -20 -20 -20 3 -15 5 3 -12 -18 -20 23 17 6 31 28 33 30 25 29 25
-20 -20 -20 -20 -20 -20 -20 -16 -17 13 -20 -20 -20 -20 -20 -9 -2 -17 9 2 -16 -2 -19 14 23 15 9 14 7 18 15 12
-20 -20 -20 -20 -20 -20 -20 -20 -20 1 -9 -14 -20 -20 -20 -12 4 2 -20 13 -2 0 -20 -17 -5 19 29 23 2 25 -15 -19
-20 -8 -20 -20 -20 -4 8 6 -6 -20 -20 -16 -16 -20 -20 -9 3 3 -20 -20 -20 2 -6 -18 8 6 18 15 -11 -2 10 5
-18 15 8 -13 -19 -2 6 6 1 -17 -19 10 -9 -20 -5 0 -6 8 -6 -20 -20 -2 3 -20 -10 1 -0 -5 -20 -20 -0 -20
-19 20 9 8 16 10 9 -1 8 19 -6 8 19 -10 7 1 10 13 8 12 3 0 7 2 -0 -6 3 -6 -20 -20 -20 -20
5 5 23 23 26 14 3 19 9 20 6 20 22 -19 2 2 9 11 -19 -20 6 13 9 16 15 10 10 20 18 20 14 -20
28 20 27 25 19 16 5 12 22 25 1 4 19 2 10 0 14 12 8 1 -6 1 -20 -17 6 15 15 15 13 6 -11 -5
35 33 30 23 29 24 12 17 16 24 21 8 24 20 15 -16 -20 -7 10 -20 -20 13 15 14 4 17 4 7 4 8 -20 -20
40 38 43 32 29 0 5 19 18 23 28 25 17 11 7 7 16 18 13 12 9 8 12 17 21 12 21 5 -13 -20 -14 0
35 39 36 30 28 30 36 31 26 32 34 30 24 11 9 28 31 21 21 12 17 15 5 16 15 18 17 12 15 6 10 17

GFSFLT1_prec_radar_102.txt.gz
Reflectivity
-20 -20 -20 -20 -20 -20 -20 -20 -20 -20 -20 -17 -20 -20 -20 -20 -20 -20 -20 -20 -20 -4 -20 -20 -20 -7 20 -2 -18 -20 -20 24
-20 -20 -20 -20 -20 -20 -20 -20 -20 -20 -20 -20 -20 -20 -20 -20 -20 -20 -20 -20 -20 -20 2 -20 10 21 -20 -20 21 -20 -6 14
-20 -20 -20 -20 -20 -20 -20 -20 -20 -20 -20 -20 -14 -4 -20 -20 -20 -20 -20 -20 -16 -20 -20 -20 2 5 1 -2 -13 -20 19 21
-20 -20 -20 -20 -20 -20 -20 -20 -20 -20 -20 -20 -9 -19 -8 -2 0 -20 -20 -20 -17 -20 -17 -20 -10 10 13 35 8 -17 7 28
-20 -20 -20 -20 -20 -20 -20 -20 -20 -20 -20 -20 -20 -20 -0 -10 -20 -20 -20 -20 -20 -2 0 -9 6 7 26 37 31 23 24 27
-20 -20 -20 -20 -20 -20 -20 -20 -20 -20 -20 -20 -20 -20 -20 -20 -20 -20 -20 -20 -20 -20 -20 -14 -20 -2 29 25 30 23 27 24
-20 -20 -20 -20 -20 -20 -20 -20 -20 -20 -20 -20 -20 -20 -20 -20 -20 -20 -20 -20 -16 -20 -16 -14 4 -0 30 22 31 10 12 23
-20 -20 -20 -20 -20 -20 -20 -20 -20 -20 -20 -20 -20 -20 -20 -20 -20 -20 -20 -16 -20 -20 -20 -20 -20 16 28 34 26 16 26 30
-20 2 -19 -20 -20 -20 -20 -20 -20 -20 -20 -20 -20 -20 -20 -20 -20 -20 -20 -20 10 -20 -20 -20 -20 13 27 28 28 29 28 30
-4 12 -20 -20 -20 -20 -20 -20 -17 -20 -20 -20 -20 9 2 -20 -20 -20 -20 -20 17 -20 -20 -20 -20 -9 17 27 33 33 31 31
-20 -20 -20 -20 -20 -20 -20 -20 -12 -20 -20 -20 -20 12 18 -20 -20 -20 -20 -20 6 -20 -20 -20 -20 -20 2 11 26 29 30 28
-20 -20 -20 -11 11 -20 -20 9 -18 -20 -20 -20 -20 20 12 -20 -20 -20 -20 -20 -20 -20 -20 -20 -20 -20 -18 18 19 7 14 22
-20 -20 -20 11 -5 -18 4 -3 3 -20 -20 -11 -8 19 18 -20 -3 -20 -15 0 -20 -20 -19 -20 -20 -20 -15 10 5 25 27 29
-20 -20 -20 2 15 6 -16 7 17 23 -9 13 13 19 15 2 -1 -12 -2 0 -18 -20 -12 -17 21 -8 -14 -7 2 -14 22 12
-20 -20 -9 -4 8 7 13 22 21 25 26 10 16 21 11 9 9 5 11 11 10 -20 -12 -12 17 1 -11 23 2 19 4 8
-20 -20 -20 4 13 23 16 9 19 22 23 20 19 21 26 19 16 13 12 14 7 4 -6 -20 -10 -7 7 3 9 -17 -20 -3
-10 -19 -17 -20 9 24 26 19 19 20 25 22 26 25 24 20 21 16 -18 -20 -6 13 18 -6 3 -1 10 7 8 -15 -12 2
-13 -10 -15 -7 9 34 28 32 30 29 21 23 22 17 28 5 18 5 27 12 14 18 8 -15 1 -3 10 13 -8 15 18 10
-20 -20 -13 7 19 29 38 32 32 33 30 28 27 27 28 23 15 21 22 1 8 17 17 15 16 12 15 16 16 5 -2 11

GFSFLT1_prec_radar_105.txt.gz
Reflectivity
-20 -20 -20 -20 -20 -20 -20 -20 -20 -20 -20 -20 -20 -20 -20 -20 -20 -20 -20 -20 -20 -20 -20 -18 8 -2 7 -11 -7 4 3 -19
-20 -20 -20 -20 -20 -20 -20 -20 -20 -20 -20 -20 -20 -20 -20 -20 -20 -20 -20 -20 -20 -20 -20 -20 -20 -2 -20 -12 -15 7 11 -20
-20 -20 -20 -20 -20 -20 -20 -20 -20 -20 -20 -20 -20 -20 -20 -20 -20 -20 -20 -20 -20 -20 -20 -20 -20 -20 -20 -6 -19 3 -4 -20
-20 -20 -20 -20 -20 -20 -20 -20 -20 -20 -20 -20 -20 -20 -20 2 -20 -20 -20 -20 -20 -20 -20 -20 -20 -20 -10 -20 8 7 1 -12
-20 -20 -20 -20 -20 -20 -20 -20 -20 -20 -20 -20 -20 -20 -20 -20 -20 -20 -20 -20 -20 -20 -20 -20 -20 -5 -9 2 14 20 32 33
-20 -20 -20 -20 -20 -20 -20 -20 -19 -8 -20 -18 -20 -20 -20 -20 -20 -20 -5 -20 -20 -1 -20 -20 -20 3 -20 -19 11 24 36 20
-20 -20 -20 -20 -20 -20 -20 -20 -20 -20 -3 -18 -20 -20 -20 -20 -20 -20 -20 -20 -20 -20 -20 -5 6 -12 -18 9 13 35 29 28
-20 -20 -20 -20 -20 -20 -20 -20 -20 -20 -20 -20 -20 -20 -20 -20 -20 -20 -20 -20 -20 -19 -8 14 -16 -0 -11 -2 32 25 35 30
-20 -20 -20 -20 -20 -20 -20 -20 -20 -20 -20 -20 -20 -20 -20 -20 -20 -20 -20 -20 -20 -20 -17 -16 -8 2 -17 12 27 30 17 25
-20 -20 -20 -20 -20 -20 -2 -19 -20 -20 -20 -20 -4 -20 -20 -20 -20 -20 -20 -20 -20 -20 -8 -20 -1 -20 -20 -14 16 31 31 21
-20 -20 -20 -20 -20 -11 -9 -10 -20 -20 -20 9 11 25 26 26 -17 -20 -20 -20 -20 -15 -12 -20 -20 -20 -20 -19 4 18 33 28
-20 -20 -20 -20 -7 0 17 9 -20 -20 -20 26 22 22 20 28 -15 -20 -20 -20 -20 -16 -20 -20 -20 -20 -20 -17 13 16 29 32
-20 -20 -20 -20 -16 6 13 15 7 -7 -9 20 23 27 22 23 -20 -11 -19 -20 -20 -20 -20 -20 -20 -20 -20 -9 12 5 11 18
-20 -20 -20 -19 1 5 20 14 -10 7 23 -14 -5 -20 21 13 -15 15 -20 -20 -20 -20 9 -14 -20 -20 -20 -20 -20 9 -19 -12
-20 -20 -20 -8 3 3 9 25 18 2 32 13 5 21 3 28 14 20 -20 9 9 -0 -14 -9 -19 -20 -20 -1 5 6 8 3
-17 -19 -19 -20 2 2 12 23 24 10 26 17 10 15 30 30 18 8 1 12 19 14 -8 -5 -20 -20 -20 -19 -20 18 0 9
-17 -17 -20 -20 -18 -10 11 28 10 8 29 19 25 23 28 23 25 -4 7 20 19 19 5 -1 -20 -14 17 2 7 15 -4 29
-20 -20 -17 -6 -6 -8 1 16 33 13 12 18 28 28 28 25 16 21 -3 20 2 20 17 18 14 -12 12 10 17 -2 22 10
-20 -20 -20 -15 -20 -20 -17 2 30 28 26 16 28 33 30 23 19 31 21 20 11 23 14 16 25 24 17 15 20 6 12 1

GFSFLT1_prec_radar_111.txt.gz
Reflectivity
-20 -20 -20 -20 -20 -20 -20 -20 -20 -20 -20 -20 -20 -20 -20 -20 -20 -20 -20 -20 -20 -20 -20 -20 -20 -20 -20 -20 -20 -20 -15 -14
-20 -20 -20 -20 -20 -20 -20 -20 -20 -20 -20 -20 -20 -20 -20 -20 -20 -20 -20 -20 -20 -20 -20 -20 -20 -20 -20 -20 -20 0 -7 -6
-0 -20 -20 -20 -20 -20 -20 -20 -20 -20 -20 -20 -20 -20 -20 -20 -20 -20 -20 -20 -20 -20 -20 -20 -20 -20 -20 -20 -16 5 3 4
8 -12 -20 -20 -20 -20 -20 -20 -20 -20 -20 -20 -20 -20 3 -20 -20 -20 -20 -20 -20 -20 -20 -11 -12 -10 -16 -15 5 14 -2 -20
-20 4 -6 -20 -20 -20 -20 -20 -20 -20 -20 -20 17 -20 -20 -20 -20 -20 -20 -20 -20 -20 -20 -20 -20 -1 -10 6 -5 7 3 1
-20 -20 -20 -20 -20 -20 -15 1 4 12 13 -15 -19 -20 30 -20 -4 -17 -20 -20 -20 -20 -19 -19 -20 9 -0 6 -19 9 16 8
-20 -20 -20 -20 -20 -20 -20 6 -10 10 23 25 -3 -20 -2 12 -18 -11 -17 -20 -20 -20 2 13 -6 -12 -20 -2 -9 9 8 6
-20 -20 -20 -20 -20 -20 -20 -20 0 -13 -9 14 20 -9 -16 -2 2 -15 -17 -20 -20 -20 -20 0 7 9 9 -2 4 4 12 1
11 -20 -20 -20 -20 -20 -20 -20 -20 -20 -20 -12 -11 -7 -2 -17 -20 -20 -20 -20 -20 -20 -20 -20 1 4 13 10 3 3 1 -20
8 14 -7 -20 -20 -20 -20 -20 -20 -20 -20 -20 -20 -18 -19 -20 -20 21 -11 -18 -20 -12 -20 -20 -16 -5 -2 -3 5 -8 0 1
23 16 -20 -11 -16 -20 -20 -20 -20 -20 -8 -4 -20 -20 -20 -15 -20 -20 -20 -20 -19 10 -19 -20 -20 -18 4 -5 8 5 -0 -5
19 7 -20 -19 -19 -19 -14 -20 -20 -20 -17 -1 -17 -9 -20 12 20 -13 -20 -13 -9 24 -6 -20 -20 -20 -5 14 4 -9 3 0
30 39 17 5 -18 -20 -19 -20 -20 -20 -20 -16 -16 -20 -4 10 7 -16 18 2 26 22 9 -13 -20 -20 -20 8 -2 -0 -5 -20
-13 10 -3 -2 14 7 -20 -20 -20 -14 -20 -11 19 14 21 10 5 -19 21 21 22 22 9 0 -7 -20 -19 13 -12 -20 -20 6
-20 -20 -20 -20 -20 -20 -20 -20 -20 -20 -7 18 13 24 21 9 -11 19 21 24 23 23 18 20 -4 -10 -20 -3 -16 -20 -20 -20
-20 -20 -20 -20 -20 -20 -20 -20 -20 -20 -16 7 -4 5 14 -5 -7 -13 -3 23 10 -20 7 24 -19 -19 -20 4 -18 -20 -20 -17
-20 -20 -20 -20 -20 -20 -20 -20 -20 -20 -20 -12 -5 -20 -20 1 9 -5 10 3 17 34 -7 19 -16 -20 13 10 -3 -2 -20 -14
-20 -20 -14 -19 -20 -20 -20 -20 -20 -20 -20 -20 -16 -20 -12 -15 14 18 20 30 29 37 42 15 -13 -20 5 8 7 0 -5 0
-20 -20 -20 -4 -20 -14 -20 -20 -20 -20 -20 -20 -16 -1 -13 -17 10 29 17 25 33 37 28 28 13 5 9 9 12 -3 17 19

GFSFLT1_prec_radar_117.txt.gz
Reflectivity
-20 -20 -20 -20 -20 -20 -20 -20 -20 -20 -20 -3 -9 -20 -20 -20 -20 -20 -20 -20 -20 -20 -20 -20 -6 -18 7 -17 -20 -20 -20 -20
-20 -20 -20 -20 -20 -20 -20 -20 -20 -20 -20 -9 -20 -13 -20 -20 -20 -20 -20 -20 -20 -20 -14 -9 -5 -20 2 12 -20 -1 -7 -4
-20 -20 -20 -20 -20 -20 -8 5 -20 -20 -20 -15 -4 -7 -17 -18 -20 -20 -5 -20 -20 -20 -20 -0 0 -1 9 12 4 -20 -20 -14
-20 -20 -20 -20 -20 -20 -20 -2 -6 -20 -13 -11 24 -17 5 -8 -14 -20 -20 -20 -20 -20 -20 -20 -20 -13 7 5 -2 -20 -13 -18
-20 -20 -20 -20 -20 -20 -20 -14 14 -2 28 -20 -20 -20 -20 -8 -6 -20 7 -20 -20 -20 -20 -20 -20 -20 -20 -20 3 -1 -14 -4
-10 -20 -20 -20 -18 -20 -20 -18 3 3 -19 -2 -14 -11 -5 8 8 -20 -20 4 -20 -20 -20 -20 -20 -20 -20 -20 -20 -20 -0 -2
23 -6 -20 -20 -20 -20 -5 -14 -20 -20 -5 20 2 3 4 -5 5 -8 -14 -20 -20 -20 -20 -20 -20 -8 -10 -1 -10 -6 0 -1
24 17 14 -11 -19 -17 -20 -20 -20 -20 10 2 12 -19 -11 -9 -20 -20 -20 2 -20 -20 -20 -20 -20 -20 -20 -2 0 0 0 -0
21 18 6 -20 17 10 -8 -10 -7 -20 -16 -15 -20 -5 -15 -4 20 -19 -6 -7 -20 25 24 -20 -20 -8 -20 4 -20 -5 -5 -1
-5 21 -15 19 15 6 3 -4 -3 3 -17 -13 -20 -20 -0 5 12 17 -12 5 -20 -14 13 28 17 -2 -5 11 -2 -20 -16 -18
16 -1 -20 -20 8 13 6 -20 -9 -14 -15 -20 -20 -18 -0 -4 16 15 17 3 30 7 5 -7 14 24 -2 7 10 -20 -4 -4
29 23 -19 -20 -20 -20 -15 -13 -10 -1 -14 -14 -20 -20 -20 3 21 -16 20 7 12 29 29 -4 -4 6 23 11 19 -16 -3 -19
26 34 14 -15 -1 -19 -20 -4 -20 -20 -13 -10 4 -4 -5 -20 -20 -20 -20 -12 28 23 -1 27 28 5 26 21 -8 9 -4 -20
23 27 24 17 -2 -15 -20 -17 -14 1 -2 -16 9 9 -18 -20 -11 -16 -20 -5 -17 17 17 9 9 23 23 17 14 14 11 -20
28 26 23 10 6 13 22 -19 -12 -19 -20 -11 1 -20 -19 -20 -13 -14 -20 -20 -20 -13 8 18 15 7 18 13 16 -20 8 2
19 18 22 29 16 13 13 16 -20 -20 -20 -20 -20 -20 -20 -20 -20 -20 -20 -20 -9 15 25 23 19 22 9 7 5 11 25 3
9 -2 1 11 8 8 3 -18 -20 -20 -10 1 -20 -20 -6 -19 2 -9 -7 -14 -9 -0 -1 18 10 14 23 3 -20 18 29 43
10 7 -15 -20 -20 -20 -17 -1 -2 -19 -20 -20 -20 -20 -20 -20 8 5 -17 -6 -18 5 -18 -20 -1 4 12 -6 19 11 4 38
8 -18 -2 -12 3 -17 -20 -20 -20 -20 -20 -20 -20 -20 -20 -20 -15 -5 -5 19 14 -19 -11 -9 -16 12 21 19 14 20 25 30